Wind_Speed
7 9 10 11 13 13 12 13 14 16 18 20 23 24 25 26 25 25 22 21 18 13 9 6 6 9 9 4 7 9 13 11 10 10 12 10 9 12 13 14 14 9 21 14 13
8 9 9 9 10 12 12 10 10 11 12 14 16 18 20 21 23 25 21 21 18 15 11 7 6 5 6 8 5 6 8 8 7 13 17 11 12 10 14 17 18 21 15 22 17
10 9 9 9 9 10 12 11 9 8 8 7 9 11 13 14 15 16 21 22 20 17 14 10 5 8 9 8 5 7 8 8 7 11 10 11 13 11 15 15 15 13 16 20 22
11 11 10 10 9 9 10 11 9 7 5 4 4 6 7 8 4 12 14 18 20 19 18 16 9 9 12 5 2 2 4 6 7 8 11 14 21 17 17 15 15 11 16 18 20
12 12 12 10 10 9 9 10 9 7 5 4 4 5 7 13 4 3 13 17 19 20 20 16 10 11 12 5 4 3 6 5 7 9 12 13 13 15 14 14 15 12 14 17 18
12 12 13 12 11 10 9 10 9 8 5 5 4 5 9 10 16 4 13 16 19 21 23 17 12 9 13 7 5 4 5 8 9 7 11 13 13 15 14 17 16 14 15 18 17
13 13 12 14 12 10 9 9 9 8 6 6 6 8 9 9 12 8 14 16 19 22 24 14 10 9 3 5 5 4 9 9 14 11 12 9 18 12 16 16 15 16 17 17 16
14 14 13 13 13 12 10 9 9 8 7 7 7 8 8 9 8 10 16 18 21 23 13 12 11 12 11 6 6 10 12 14 15 13 10 15 10 12 14 15 16 15 16 16 16
15 15 14 13 13 13 11 9 9 9 8 9 9 10 7 8 9 12 16 18 20 18 15 13 15 12 9 9 14 11 20 19 15 12 15 12 14 12 13 13 14 15 16 16 16
15 16 15 13 12 14 12 9 8 10 10 11 11 9 11 11 10 14 18 16 18 14 14 14 15 14 15 16 21 18 10 21 16 14 13 17 16 15 17 14 13 13 16 16 16
17 16 16 14 12 13 12 7 1 10 15 14 1 6 13 8 14 16 18 16 16 16 17 15 16 20 18 18 19 14 9 20 16 13 12 22 14 22 19 18 16 19 18 17 17
19 17 16 16 13 12 13 11 3 10 15 16 16 15 6 16 17 17 19 20 21 21 17 14 23 19 16 18 13 10 8 7 9 14 12 21 21 22 18 20 18 18 17 18 17
20 19 17 16 14 13 13 15 16 14 15 18 23 21 20 17 17 21 22 22 21 21 21 23 17 18 20 17 16 14 12 12 12 14 10 13 14 21 18 15 23 10 19 20 19
21 20 19 17 16 11 9 12 12 10 13 20 26 28 25 19 21 18 23 23 18 22 22 21 18 20 17 18 16 17 16 12 14 16 16 17 19 25 21 18 25 12 27 22 22
22 21 20 19 18 13 14 14 10 6 6 12 27 22 26 29 10 26 25 26 21 19 23 25 21 17 17 18 17 20 16 13 9 11 16 19 17 24 28 23 21 22 30 24 29
24 23 20 23 17 15 15 10 12 10 15 5 25 27 28 30 25 23 26 28 21 21 23 23 19 18 20 16 19 17 6 11 14 16 21 17 21 20 26 22 19 21 25 25 28
25 25 23 24 18 23 22 16 12 19 18 16 24 23 31 30 28 28 30 31 32 26 27 24 25 20 18 20 20 21 16 11 11 14 16 21 18 10 4 14 17 27 23 26 28
26 27 25 21 23 19 18 19 20 17 29 9 21 21 32 32 33 31 31 34 33 28 25 27 24 23 22 24 23 25 21 20 14 10 19 10 12 11 10 10 12 12 6 9 27
25 26 27 23 22 24 24 26 36 27 23 26 16 26 29 36 30 36 36 36 35 35 30 29 29 23 25 24 24 23 26 27 27 22 8 13 16 9 8 7 5 7 10 13 19
23 25 25 23 23 27 31 40 30 29 30 26 28 23 27 34 40 38 36 36 35 35 31 26 22 25 22 23 25 24 22 24 23 11 13 17 21 12 18 11 12 9 6 11 18
21 18 10 20 25 30 39 41 36 28 31 28 24 29 26 29 38 41 41 31 35 35 34 31 27 23 29 31 29 29 28 19 23 19 12 13 8 14 16 14 9 8 5 5 11
21 14 14 20 22 27 36 38 29 29 32 33 26 27 29 24 33 40 42 38 29 33 38 35 28 27 32 25 25 28 26 22 22 18 19 17 16 21 17 14 12 10 6 6 9
21 24 16 18 27 29 27 32 30 32 32 33 28 29 27 27 25 35 42 36 31 31 38 34 35 23 27 29 27 29 26 26 23 21 23 15 8 16 15 13 13 11 8 4 5
16 10 14 24 25 27 26 31 31 33 35 33 34 28 30 28 26 24 36 37 31 33 29 34 34 33 27 26 29 30 29 29 28 26 26 23 16 22 23 17 15 13 9 4 7
16 19 11 16 25 27 31 28 30 34 35 33 34 33 30 30 28 24 23 28 35 31 32 36 34 36 35 25 25 23 27 27 30 22 25 21 15 10 23 19 16 14 15 10 11
16 9 19 24 20 16 20 36 29 27 32 36 33 32 32 35 28 26 24 27 33 26 26 33 28 32 34 30 30 28 28 26 28 26 25 22 19 6 19 20 21 17 12 10 11
16 16 17 24 16 15 18 21 31 25 23 32 32 31 31 33 28 27 23 26 25 31 28 28 32 27 32 32 29 32 28 24 24 26 24 23 21 13 12 13 11 8 8 8 8
Wind_Direction
282 283 284 288 290 290 284 280 274 269 263 258 255 252 248 247 247 245 242 242 241 244 239 215 191 174 186 323 322 344 303 74 64 90 106 108 104 95 91 103 104 137 129 121 99
282 283 286 289 292 294 294 289 284 277 269 259 252 250 248 246 245 242 237 236 230 229 223 207 142 187 259 287 309 317 350 89 84 108 120 92 117 122 118 114 114 122 129 132 141
283 281 286 288 291 294 295 297 292 286 274 261 249 243 241 242 249 245 230 225 219 211 209 196 223 251 264 275 254 331 87 103 125 94 122 110 137 65 112 130 139 112 120 134 144
288 283 281 285 287 290 291 294 296 290 273 248 231 224 219 195 94 252 220 213 207 201 197 191 221 233 239 236 216 331 112 98 134 124 127 102 99 91 106 138 147 135 128 134 146
290 285 281 280 284 285 284 287 292 288 268 239 223 215 195 179 264 260 200 195 194 191 185 177 208 219 244 212 213 261 126 142 142 136 123 124 99 100 111 140 153 152 145 144 151
290 287 282 278 276 280 279 278 284 281 268 240 217 187 169 157 239 257 192 185 181 182 180 172 202 228 284 189 217 168 164 154 157 153 144 124 128 116 119 140 148 156 155 154 164
290 287 283 278 274 272 275 270 274 272 260 240 213 197 200 167 239 197 182 178 176 175 177 190 197 247 208 197 239 184 180 166 166 168 172 145 121 127 131 138 146 158 161 164 173
288 286 282 276 273 267 264 265 265 263 250 236 219 210 209 228 223 189 177 175 173 173 164 214 218 216 233 238 216 214 212 172 178 175 177 181 137 153 143 138 152 165 170 178 178
286 283 280 276 269 266 258 256 258 257 246 231 220 214 224 223 213 189 179 178 177 178 193 207 218 216 221 218 206 211 234 192 168 191 173 183 158 173 162 155 156 173 181 184 183
279 281 278 274 267 263 256 249 255 260 246 229 221 224 255 232 216 194 182 182 189 192 199 209 208 213 227 220 233 213 193 181 188 190 200 197 169 204 179 169 166 185 186 185 191
274 275 275 271 262 257 255 239 269 299 251 224 289 212 303 194 212 196 185 180 187 197 204 214 207 212 218 219 244 280 231 201 181 178 212 187 179 169 187 186 183 187 189 186 192
273 269 269 267 260 251 244 216 284 249 256 223 198 212 200 190 187 192 188 186 193 200 200 208 217 217 223 230 250 247 278 199 184 175 200 192 186 180 192 200 190 191 189 183 187
268 267 263 264 256 248 239 238 243 246 274 234 228 219 205 206 201 200 196 189 199 202 207 210 224 219 224 231 236 224 224 212 220 181 212 239 209 178 196 206 186 224 202 185 191
263 263 259 255 251 243 245 242 250 259 284 248 221 220 208 208 212 217 205 190 205 211 209 220 225 219 226 228 220 218 213 226 202 206 214 218 248 185 192 196 210 233 189 192 197
262 257 257 246 245 221 191 220 218 229 266 240 207 198 202 205 206 204 211 193 207 209 210 223 225 222 220 223 215 222 202 224 230 222 245 224 234 208 208 205 203 213 205 205 206
262 255 245 252 236 228 234 222 191 213 238 225 185 191 193 205 208 202 203 199 213 218 221 227 221 224 224 218 209 212 182 200 229 242 242 233 225 267 197 214 212 224 220 216 210
256 257 243 244 237 222 213 182 217 227 226 225 183 199 201 201 198 197 201 204 206 214 218 221 224 221 213 212 209 212 205 210 226 231 234 235 221 256 178 223 209 221 227 223 207
253 251 248 233 235 226 207 194 223 228 221 192 200 205 207 203 208 207 207 209 210 211 216 216 218 212 209 213 204 209 211 219 208 219 241 189 187 206 144 177 195 210 208 199 205
254 249 243 239 225 225 202 214 219 217 221 231 231 205 214 213 211 206 212 214 212 208 221 209 224 213 213 214 222 209 222 229 257 283 193 228 220 205 209 185 197 227 247 239 227
257 253 241 246 226 219 215 224 229 225 232 244 245 223 216 213 212 212 210 216 216 215 215 229 218 222 212 213 218 215 216 235 249 268 284 221 194 206 167 170 179 215 247 238 231
262 264 259 230 232 214 219 228 229 226 236 247 252 240 233 225 218 218 217 221 216 215 216 225 238 227 206 206 215 215 231 227 236 224 244 257 59 132 153 155 156 173 195 226 218
250 240 220 231 224 224 228 230 233 237 237 238 251 236 236 239 230 224 223 219 217 214 214 219 233 243 206 211 215 221 222 223 239 251 267 301 188 185 166 161 146 147 186 186 191
248 230 191 224 229 231 239 237 235 235 233 232 238 231 241 257 260 232 224 222 218 215 218 213 226 238 236 209 208 227 223 222 234 252 268 272 150 162 164 177 182 173 155 201 8
251 244 244 227 233 234 236 238 238 233 233 230 231 233 238 249 251 256 228 218 217 218 216 217 219 229 225 218 212 213 224 231 233 225 231 243 183 219 206 194 200 189 193 206 254
244 222 244 243 240 247 238 240 235 234 229 229 231 231 230 239 244 245 239 229 216 221 212 218 223 223 235 238 225 218 220 231 234 239 249 242 246 244 197 190 196 193 213 255 280
228 259 262 256 243 258 237 234 234 230 226 223 229 224 228 228 235 233 231 238 216 205 199 205 222 224 234 238 241 238 223 215 224 232 236 253 266 198 181 189 199 207 239 250 285
213 246 274 224 263 261 242 231 232 234 232 227 224 226 231 226 226 222 249 236 231 207 206 208 222 216 233 233 238 243 235 217 219 220 226 233 231 210 186 174 186 198 206 218 264
Height
3173 3172 3171 3170 3169 3168 3169 3168 3168 3167 3167 3167 3167 3168 3170 3172 3174 3176 3178 3182 3183 3185 3187 3187 3187 3186 3186 3187 3186 3187 3186 3185 3186 3188 3191 3192 3194 3195 3196 3197 3197 3194 3195 3193 3194
3171 3170 3170 3169 3168 3166 3166 3166 3165 3165 3165 3164 3164 3165 3166 3168 3169 3171 3176 3177 3181 3184 3186 3187 3188 3187 3187 3188 3190 3189 3186 3187 3190 3190 3191 3194 3195 3196 3197 3198 3199 3197 3197 3198 3201
3170 3169 3168 3168 3167 3166 3164 3164 3164 3163 3163 3162 3162 3162 3163 3165 3167 3167 3170 3174 3178 3181 3184 3186 3189 3191 3190 3189 3191 3188 3188 3190 3192 3192 3194 3195 3197 3199 3199 3200 3198 3197 3198 3200 3203
3168 3167 3166 3165 3165 3165 3164 3163 3162 3162 3162 3162 3162 3162 3162 3164 3169 3164 3167 3171 3174 3179 3182 3185 3188 3191 3189 3191 3191 3191 3192 3191 3194 3194 3195 3196 3197 3201 3198 3202 3200 3200 3201 3202 3205
3166 3165 3165 3164 3163 3163 3162 3162 3161 3161 3161 3161 3161 3161 3162 3164 3164 3163 3165 3169 3172 3177 3181 3184 3188 3189 3189 3192 3192 3191 3193 3194 3196 3196 3197 3198 3200 3202 3203 3203 3201 3202 3203 3204 3207
3163 3163 3163 3162 3161 3161 3161 3161 3160 3159 3160 3160 3161 3161 3162 3164 3162 3164 3165 3168 3171 3176 3180 3183 3188 3190 3191 3192 3193 3192 3194 3194 3196 3197 3198 3198 3202 3202 3203 3202 3202 3203 3205 3208 3210
3161 3160 3160 3160 3160 3159 3159 3159 3159 3158 3158 3160 3160 3161 3162 3162 3162 3162 3165 3168 3172 3175 3180 3184 3188 3192 3191 3192 3193 3193 3194 3194 3195 3198 3198 3199 3203 3205 3201 3202 3203 3206 3208 3210 3211
3158 3157 3157 3157 3157 3157 3157 3157 3158 3157 3158 3158 3159 3160 3160 3160 3161 3163 3165 3168 3172 3176 3181 3187 3189 3189 3190 3192 3193 3191 3191 3190 3194 3196 3197 3195 3201 3206 3204 3202 3205 3208 3210 3211 3211
3155 3155 3154 3154 3155 3155 3155 3155 3156 3156 3157 3157 3158 3159 3161 3161 3161 3163 3165 3169 3172 3176 3180 3185 3186 3189 3190 3189 3189 3187 3184 3187 3191 3193 3194 3196 3200 3204 3205 3205 3206 3208 3209 3210 3211
3152 3151 3151 3151 3152 3153 3153 3153 3154 3155 3155 3156 3157 3161 3159 3160 3161 3162 3165 3169 3172 3176 3179 3181 3183 3187 3186 3187 3183 3181 3181 3184 3187 3192 3193 3194 3197 3199 3203 3204 3205 3209 3208 3210 3210
3148 3148 3148 3148 3149 3150 3152 3153 3156 3155 3151 3155 3156 3157 3157 3159 3160 3161 3164 3169 3172 3176 3178 3179 3184 3183 3183 3183 3180 3181 3179 3181 3183 3187 3191 3191 3192 3195 3201 3201 3202 3203 3206 3208 3209
3145 3144 3144 3145 3146 3146 3148 3150 3152 3151 3148 3149 3151 3155 3159 3159 3159 3160 3164 3168 3170 3172 3177 3181 3178 3181 3181 3180 3180 3180 3178 3180 3183 3186 3191 3189 3190 3193 3196 3199 3201 3206 3207 3206 3209
3140 3140 3141 3141 3142 3143 3145 3147 3146 3146 3145 3144 3146 3150 3155 3157 3157 3158 3161 3164 3168 3172 3174 3175 3175 3178 3178 3178 3179 3179 3180 3181 3183 3185 3189 3189 3189 3190 3193 3196 3196 3191 3207 3203 3206
3135 3136 3136 3137 3141 3141 3143 3144 3146 3146 3144 3140 3138 3143 3150 3154 3155 3158 3157 3163 3168 3169 3172 3173 3172 3173 3174 3175 3178 3178 3180 3180 3181 3183 3185 3188 3185 3185 3189 3192 3189 3193 3198 3199 3202
3129 3130 3132 3133 3134 3138 3138 3140 3142 3147 3143 3131 3133 3140 3144 3147 3152 3154 3155 3161 3164 3166 3170 3168 3169 3170 3171 3174 3176 3176 3177 3179 3180 3180 3182 3182 3183 3179 3182 3184 3189 3191 3189 3192 3193
3124 3124 3127 3127 3130 3134 3136 3138 3141 3147 3132 3126 3127 3132 3139 3143 3147 3153 3153 3158 3162 3164 3164 3165 3166 3168 3169 3172 3173 3174 3174 3178 3180 3179 3177 3176 3179 3172 3176 3182 3184 3190 3190 3190 3195
3117 3118 3119 3121 3127 3125 3129 3134 3140 3133 3130 3123 3125 3130 3133 3137 3142 3146 3148 3151 3154 3158 3158 3161 3161 3164 3167 3169 3170 3172 3176 3177 3178 3175 3172 3170 3172 3173 3179 3178 3181 3183 3186 3188 3190
3109 3110 3114 3116 3119 3123 3126 3130 3128 3122 3121 3118 3122 3127 3128 3133 3136 3139 3142 3146 3149 3153 3154 3156 3158 3159 3161 3164 3166 3169 3171 3170 3168 3163 3162 3164 3165 3171 3173 3176 3179 3182 3186 3189 3187
3101 3103 3106 3111 3112 3117 3120 3120 3111 3116 3118 3117 3118 3119 3123 3127 3131 3134 3135 3139 3143 3146 3150 3149 3153 3155 3158 3161 3163 3166 3167 3167 3163 3160 3162 3165 3167 3168 3170 3174 3177 3181 3183 3186 3188
3094 3094 3100 3103 3104 3109 3111 3102 3106 3111 3110 3114 3114 3114 3115 3120 3124 3126 3127 3133 3137 3142 3146 3145 3147 3149 3153 3158 3159 3160 3165 3167 3163 3161 3158 3154 3159 3161 3165 3170 3174 3177 3180 3182 3184
3089 3090 3096 3094 3097 3098 3092 3093 3101 3105 3108 3110 3109 3109 3110 3112 3116 3118 3121 3129 3132 3136 3141 3142 3143 3144 3147 3148 3153 3157 3158 3160 3160 3160 3156 3154 3161 3162 3166 3168 3172 3175 3177 3179 3182
3084 3087 3091 3089 3091 3090 3087 3091 3100 3101 3102 3104 3106 3106 3106 3108 3108 3111 3113 3118 3125 3130 3132 3137 3139 3138 3137 3144 3150 3152 3154 3158 3158 3158 3155 3154 3160 3162 3165 3168 3170 3172 3172 3176 3179
3075 3078 3082 3085 3083 3084 3087 3087 3091 3096 3096 3099 3101 3103 3104 3103 3103 3103 3106 3113 3118 3122 3125 3132 3133 3136 3136 3139 3144 3147 3150 3154 3156 3157 3154 3156 3158 3160 3163 3167 3167 3168 3170 3171 3175
3072 3075 3077 3078 3077 3080 3081 3082 3083 3087 3090 3092 3095 3099 3101 3099 3098 3098 3099 3105 3111 3115 3120 3126 3128 3130 3128 3131 3137 3141 3146 3148 3150 3151 3153 3153 3155 3157 3158 3163 3164 3166 3167 3169 3170
3066 3067 3071 3071 3072 3072 3073 3075 3075 3078 3081 3086 3088 3090 3095 3097 3095 3095 3096 3099 3104 3109 3112 3119 3120 3126 3127 3129 3131 3135 3139 3143 3143 3146 3147 3148 3150 3150 3153 3160 3161 3162 3163 3165 3166
3060 3062 3058 3055 3059 3061 3062 3065 3068 3070 3075 3078 3081 3085 3089 3091 3092 3094 3096 3096 3097 3102 3106 3112 3116 3122 3123 3125 3126 3127 3129 3134 3139 3143 3145 3147 3149 3148 3150 3153 3156 3157 3159 3160 3160
3052 3052 3051 3051 3054 3058 3059 3061 3063 3066 3067 3071 3076 3082 3082 3084 3089 3091 3092 3092 3093 3095 3101 3109 3113 3118 3119 3122 3123 3122 3123 3127 3132 3136 3140 3144 3147 3145 3147 3151 3155 3156 3157 3157 3155